Location: Bremen
(53.0796°N, 8.8241°E)
Time: 09:03:36
(UTC+01:00)

ISS - Visible Passes

Search period start: 17 February 2019 00:00
Search period end: 27 February 2019 00:00
Orbit: 403 x 411 km, 51.6° (Epoch: 17 February)

Date Brightness Start Highest point End Pass type
(mag) Time Alt. Az. Time Alt. Az. Time Alt. Az.
23 Feb -0.6 06:35:57 10° SSE 06:36:52 11° SE 06:37:46 10° ESE visible
25 Feb -1.3 06:27:35 10° SSW 06:30:01 19° SSE 06:32:26 10° E visible
26 Feb -1.0 05:37:05 10° S 05:38:43 13° SE 05:40:22 10° ESE visible
